Weather History for Cortez, CO

Change the Weather History Date:

Friday, November 16, 2012

  Actual Average Record
Temperature  
Mean Temperature 46 °F 37 °F  
Max Temperature 62 °F 51 °F 66 °F (1999)
Min Temperature 29 °F 22 °F 15 °F (1997)
Degree Days  
Heating Degree Days 19 28  
Month to date heating degree days 385 406  
Since 1 July heating degree days 941 1088  
Cooling Degree Days 0 0  
Month to date cooling degree days 0 0  
Year to date cooling degree days 746 426  
Moisture  
Dew Point 20 °F    
Average Humidity 45    
Maximum Humidity 75    
Minimum Humidity 15    
Precipitation  
Precipitation 0.00 in 0.05 in 0.06 in (1996)
Month to date precipitation 0.46 0.71  
Year to date precipitation 6.58 12.13  
Sea Level Pressure  
Sea Level Pressure 30.19 in    
Wind  
Wind Speed 4 mph (ESE)    
Max Wind Speed 18 mph    
Max Gust Speed 23 mph    
Visibility 10 miles    
Events      
T = Trace of Precipitation, MM = Missing Value Source: NWS Daily Summary

Daily Weather History Graph

Daily Weather History Graph

Search for Another Location

Airport:

Trip Planner

Search our weather history database for the weather conditions in past years. The results will help you decide how hot, cold, wet, or windy it might be!

Date:

Astronomy

Nov. 16, 2012 Rise Set
Actual Time 6:55 AM MST 5:03 PM MST
Civil Twilight 6:27 AM MST 5:30 PM MST
Nautical Twilight 5:55 AM MST 6:02 PM MST
Astronomical Twilight 5:24 AM MST 6:33 PM MST
Moon 9:51 AM MST (11/16) 8:07 PM MST (11/16)
Length of Visible Light 11h 03m
Length of Day
10h 07m
Waxing Crescent, 12% of the Moon is Illuminated
Nov 16
Waxing Crescent
Nov 20
First Quarter
Nov 28
Full
Dec 6
Last Quarter
Dec 13
New

Hourly Weather History & Observations

Time (MST) Temp. Windchill Dew Point Humidity Pressure Visibility Wind Dir Wind Speed Gust Speed Precip Events Conditions
12:53 AM 30.0 °F 25.2 °F 21.0 °F 69% 30.26 in 10.0 mi ENE 4.6 mph - N/A   Clear
1:53 AM 28.9 °F - 21.0 °F 72% 30.25 in 10.0 mi Calm Calm - N/A   Clear
2:53 AM 30.0 °F 26.5 °F 21.9 °F 72% 30.25 in 10.0 mi SE 3.5 mph - N/A   Clear
3:53 AM 32.0 °F 27.5 °F 21.9 °F 66% 30.22 in 10.0 mi North 4.6 mph - N/A   Clear
4:53 AM 28.9 °F - 21.9 °F 75% 30.24 in 10.0 mi Calm Calm - N/A   Clear
5:53 AM 30.0 °F - 23.0 °F 75% 30.27 in 10.0 mi Calm Calm - N/A   Clear
6:53 AM 32.0 °F 27.5 °F 23.0 °F 69% 30.27 in 10.0 mi East 4.6 mph - N/A   Overcast
7:53 AM 36.0 °F 33.3 °F 25.0 °F 64% 30.28 in 10.0 mi NE 3.5 mph - N/A   Mostly Cloudy
8:53 AM 42.1 °F - 25.0 °F 51% 30.28 in 10.0 mi Calm Calm - N/A   Overcast
9:53 AM 48.0 °F - 24.1 °F 39% 30.25 in 10.0 mi ENE 3.5 mph - N/A   Overcast
10:53 AM 54.0 °F - 14.0 °F 21% 30.23 in 10.0 mi WSW 4.6 mph - N/A   Overcast
11:53 AM 57.9 °F - 14.0 °F 18% 30.17 in 10.0 mi South 12.7 mph 17.3 mph N/A   Overcast
12:53 PM 61.0 °F - 12.9 °F 15% 30.13 in 10.0 mi SE 5.8 mph - N/A   Mostly Cloudy
1:53 PM 61.0 °F - 14.0 °F 16% 30.12 in 10.0 mi SE 15.0 mph - N/A   Overcast
2:53 PM 61.0 °F - 14.0 °F 16% 30.10 in 10.0 mi SE 11.5 mph - N/A   Overcast
3:53 PM 59.0 °F - 15.1 °F 18% 30.10 in 10.0 mi SE 8.1 mph - N/A   Overcast
4:53 PM 53.1 °F - 18.0 °F 25% 30.12 in 10.0 mi SSE 3.5 mph - N/A   Scattered Clouds
5:53 PM 50.0 °F - 18.0 °F 28% 30.13 in 10.0 mi WNW 3.5 mph - N/A   Mostly Cloudy
6:53 PM 45.0 °F - 19.0 °F 36% 30.15 in 10.0 mi Calm Calm - N/A   Mostly Cloudy
7:53 PM 39.9 °F 36.7 °F 19.0 °F 43% 30.16 in 10.0 mi East 4.6 mph - N/A   Mostly Cloudy
8:53 PM 39.0 °F - 19.9 °F 46% 30.14 in 10.0 mi Calm Calm - N/A   Overcast
9:53 PM 37.9 °F - 21.9 °F 53% 30.14 in 10.0 mi Calm Calm - N/A   Overcast
10:53 PM 37.0 °F - 21.9 °F 54% 30.12 in 10.0 mi Calm Calm - N/A   Mostly Cloudy
11:53 PM 35.1 °F - 21.0 °F 57% 30.12 in 10.0 mi Calm Calm - N/A   Scattered Clouds